When you browse on this site, cookies collect data to enhance your experience and personalize the content and advertising you see.
Visit our Privacy Policy to learn more. By continuing to use the site, you agree to this use of cookies and data.
  • In Romania
  • List of Countries
  • For 7 days
  • Water Temperature
  • Satellite Maps
  • Weather Map
  • Weather Widgets
  • user-avatar
    Login

    Hourly Weather Stafford

    Today, 18 February, Monday

    Time Temperature Precipitation Wind Pressure Humidity
    00:00 +5°C° 0 mm 4 mps 751 mmHg 93%
    01:00 +5°C° 0 mm 5 mps 751 mmHg 93%
    02:00 +5°C° 0 mm 5 mps 751 mmHg 93%
    03:00 +5°C° 0 mm 5 mps 750 mmHg 93%
    04:00 +5°C° 0 mm 5 mps 750 mmHg 93%
    05:00 +5°C° 0 mm 5 mps 750 mmHg 93%
    06:00 +5°C° 0 mm 4 mps 750 mmHg 94%
    07:00 +5°C° 0 mm 5 mps 750 mmHg 92%
    08:00 +6°C° 0 mm 5 mps 750 mmHg 89%
    09:00 +5°C° 0 mm 6 mps 750 mmHg 87%
    10:00 +7°C° 0 mm 6 mps 750 mmHg 82%
    11:00 +8°C° 0 mm 6 mps 750 mmHg 77%
    12:00 +9°C° 0 mm 6 mps 750 mmHg 72%
    13:00 +9°C° 0 mm 6 mps 750 mmHg 68%
    14:00 +9°C° 0 mm 6 mps 750 mmHg 65%
    15:00 +9°C° 0 mm 6 mps 750 mmHg 61%
    16:00 +8°C° 0 mm 5 mps 750 mmHg 66%
    17:00 +7°C° 0 mm 5 mps 750 mmHg 71%
    18:00 +6°C° 0 mm 4 mps 750 mmHg 76%
    19:00 +5°C° 0 mm 5 mps 751 mmHg 79%
    20:00 +5°C° 0 mm 5 mps 751 mmHg 82%
    21:00 +5°C° 0 mm 5 mps 751 mmHg 86%
    22:00 +3°C° 0 mm 5 mps 751 mmHg 87%
    23:00 +3°C° 0 mm 5 mps 751 mmHg 88%

    Tomorrow, 19 February, Tuesday

    Time Temperature Precipitation Wind Pressure Humidity
    00:00 +3°C° 0 mm 5 mps 752 mmHg 89%
    01:00 +4°C° 0 mm 4 mps 752 mmHg 90%
    02:00 +4°C° 0 mm 4 mps 752 mmHg 91%
    03:00 +4°C° 0 mm 4 mps 752 mmHg 91%
    04:00 +3°C° 0 mm 4 mps 752 mmHg 92%
    05:00 +3°C° 0 mm 4 mps 753 mmHg 92%
    06:00 +3°C° 0 mm 4 mps 753 mmHg 93%
    07:00 +3°C° 0 mm 4 mps 753 mmHg 91%
    08:00 +4°C° 0 mm 4 mps 753 mmHg 89%
    09:00 +4°C° 0 mm 4 mps 754 mmHg 87%
    10:00 +5°C° 0 mm 4 mps 754 mmHg 81%
    11:00 +6°C° 0 mm 5 mps 754 mmHg 75%
    12:00 +8°C° 0 mm 5 mps 754 mmHg 69%
    13:00 +8°C° 0 mm 5 mps 754 mmHg 71%
    14:00 +7°C° 0 mm 4 mps 753 mmHg 72%
    15:00 +7°C° 0 mm 4 mps 753 mmHg 74%
    16:00 +7°C° 0.1 mm 4 mps 753 mmHg 76%
    17:00 +7°C° 0.1 mm 4 mps 753 mmHg 79%
    18:00 +6°C° 0.1 mm 4 mps 753 mmHg 81%
    19:00 +6°C° 0.5 mm 5 mps 752 mmHg 83%
    20:00 +5°C° 0.5 mm 6 mps 752 mmHg 85%
    21:00 +5°C° 0.5 mm 6 mps 752 mmHg 87%
    22:00 +5°C° 0.6 mm 7 mps 752 mmHg 87%
    23:00 +5°C° 0.6 mm 7 mps 752 mmHg 88%

    Day after tomorrow, 20 February, Wednesday

    Time Temperature Precipitation Wind Pressure Humidity
    00:00 +5°C° 0.6 mm 8 mps 751 mmHg 89%
    01:00 +5°C° 0.3 mm 8 mps 751 mmHg 89%
    02:00 +6°C° 0.3 mm 8 mps 751 mmHg 89%
    03:00 +6°C° 0.3 mm 8 mps 751 mmHg 89%
    04:00 +6°C° 0 mm 7 mps 751 mmHg 89%
    05:00 +6°C° 0 mm 7 mps 751 mmHg 88%
    06:00 +7°C° 0 mm 6 mps 751 mmHg 88%
    07:00 +6°C° 0 mm 7 mps 752 mmHg 87%
    08:00 +8°C° 0 mm 7 mps 752 mmHg 86%
    09:00 +8°C° 0 mm 7 mps 752 mmHg 85%
    10:00 +9°C° 0.1 mm 7 mps 752 mmHg 84%
    11:00 +9°C° 0.1 mm 7 mps 753 mmHg 82%
    12:00 +10°C° 0.1 mm 7 mps 753 mmHg 80%
    13:00 +10°C° 0.1 mm 7 mps 753 mmHg 80%
    14:00 +10°C° 0.1 mm 7 mps 753 mmHg 80%
    15:00 +10°C° 0.1 mm 7 mps 753 mmHg 81%
    16:00 +10°C° 0 mm 7 mps 754 mmHg 82%
    17:00 +9°C° 0 mm 6 mps 754 mmHg 84%
    18:00 +9°C° 0 mm 5 mps 754 mmHg 86%
    19:00 +9°C° 0 mm 5 mps 755 mmHg 87%
    20:00 +8°C° 0 mm 5 mps 755 mmHg 89%
    21:00 +8°C° 0 mm 5 mps 756 mmHg 90%
    22:00 +7°C° 0 mm 5 mps 756 mmHg 91%
    23:00 +7°C° 0 mm 5 mps 756 mmHg 92%

    21 February, Thursday

    Time Temperature Precipitation Wind Pressure Humidity
    00:00 +7°C° 0 mm 5 mps 757 mmHg 93%
    01:00 +7°C° 0 mm 5 mps 757 mmHg 93%
    02:00 +7°C° 0 mm 4 mps 757 mmHg 92%
    03:00 +7°C° 0 mm 4 mps 757 mmHg 92%
    04:00 +7°C° 0 mm 4 mps 758 mmHg 92%
    05:00 +7°C° 0 mm 4 mps 758 mmHg 91%
    06:00 +8°C° 0 mm 3 mps 758 mmHg 91%
    07:00 +7°C° 0 mm 4 mps 759 mmHg 90%
    08:00 +7°C° 0 mm 4 mps 759 mmHg 90%
    09:00 +7°C° 0 mm 4 mps 760 mmHg 89%
    10:00 +8°C° 0 mm 4 mps 760 mmHg 87%
    11:00 +8°C° 0 mm 4 mps 760 mmHg 85%
    12:00 +8°C° 0 mm 5 mps 761 mmHg 83%
    13:00 +9°C° 0 mm 5 mps 761 mmHg 82%
    14:00 +9°C° 0 mm 5 mps 761 mmHg 81%
    15:00 +10°C° 0 mm 5 mps 761 mmHg 80%
    16:00 +10°C° 0 mm 4 mps 761 mmHg 83%
    17:00 +9°C° 0 mm 3 mps 761 mmHg 86%
    18:00 +9°C° 0 mm 3 mps 762 mmHg 90%
    19:00 +8°C° 0 mm 3 mps 762 mmHg 90%
    20:00 +8°C° 0 mm 3 mps 763 mmHg 90%
    21:00 +7°C° 0 mm 4 mps 763 mmHg 91%
    22:00 +6°C° 0 mm 4 mps 764 mmHg 91%
    23:00 +6°C° 0 mm 4 mps 764 mmHg 91%

    22 February, Friday

    Time Temperature Precipitation Wind Pressure Humidity
    00:00 +6°C° 0 mm 4 mps 765 mmHg 91%
    01:00 +5°C° 0 mm 4 mps 765 mmHg 90%
    02:00 +5°C° 0 mm 4 mps 765 mmHg 90%
    03:00 +5°C° 0 mm 4 mps 765 mmHg 89%
    04:00 +5°C° 0 mm 4 mps 765 mmHg 89%
    05:00 +5°C° 0 mm 3 mps 765 mmHg 89%
    06:00 +5°C° 0 mm 3 mps 765 mmHg 90%
    07:00 +6°C° 0 mm 4 mps 765 mmHg 87%
    08:00 +6°C° 0 mm 4 mps 766 mmHg 85%
    09:00 +7°C° 0 mm 4 mps 766 mmHg 82%
    10:00 +8°C° 0 mm 4 mps 767 mmHg 77%
    11:00 +11°C° 0 mm 4 mps 767 mmHg 72%
    12:00 +12°C° 0 mm 4 mps 767 mmHg 67%
    13:00 +13°C° 0 mm 4 mps 767 mmHg 66%
    14:00 +13°C° 0 mm 4 mps 767 mmHg 66%
    15:00 +14°C° 0 mm 5 mps 766 mmHg 65%
    16:00 +12°C° 0 mm 4 mps 766 mmHg 71%
    17:00 +11°C° 0 mm 4 mps 766 mmHg 77%
    18:00 +10°C° 0 mm 3 mps 766 mmHg 84%
    19:00 +9°C° 0 mm 3 mps 767 mmHg 86%
    20:00 +9°C° 0 mm 3 mps 767 mmHg 88%
    21:00 +8°C° 0 mm 3 mps 767 mmHg 91%
    22:00 +8°C° 0 mm 3 mps 767 mmHg 91%
    23:00 +7°C° 0 mm 3 mps 767 mmHg 90%

    23 February, Saturday

    Time Temperature Precipitation Wind Pressure Humidity
    00:00 +7°C° 0 mm 3 mps 767 mmHg 90%
    01:00 +7°C° 0 mm 3 mps 767 mmHg 90%
    02:00 +5°C° 0 mm 3 mps 767 mmHg 91%
    03:00 +5°C° 0 mm 3 mps 767 mmHg 92%
    04:00 +5°C° 0 mm 3 mps 767 mmHg 92%
    05:00 +5°C° 0 mm 3 mps 767 mmHg 93%
    06:00 +5°C° 0 mm 3 mps 767 mmHg 94%
    07:00 +5°C° 0 mm 3 mps 767 mmHg 91%
    08:00 +7°C° 0 mm 3 mps 767 mmHg 88%
    09:00 +8°C° 0 mm 3 mps 767 mmHg 85%
    10:00 +9°C° 0 mm 3 mps 767 mmHg 79%
    11:00 +11°C° 0 mm 3 mps 767 mmHg 73%
    12:00 +12°C° 0 mm 3 mps 767 mmHg 67%
    13:00 +13°C° 0 mm 4 mps 766 mmHg 67%
    14:00 +13°C° 0 mm 4 mps 766 mmHg 66%
    15:00 +14°C° 0 mm 4 mps 765 mmHg 65%
    16:00 +12°C° 0 mm 4 mps 765 mmHg 72%
    17:00 +11°C° 0 mm 3 mps 765 mmHg 79%
    18:00 +10°C° 0 mm 3 mps 765 mmHg 85%
    19:00 +9°C° 0 mm 3 mps 765 mmHg 87%
    20:00 +9°C° 0 mm 3 mps 765 mmHg 88%
    21:00 +8°C° 0 mm 3 mps 765 mmHg 90%
    22:00 +8°C° 0 mm 3 mps 765 mmHg 90%
    23:00 +7°C° 0 mm 3 mps 765 mmHg 91%
    Show more